KC0HJX Weather Reports


time (UTC)temp
C
wind
direction
speed
KPH
gust
KPH
rain 1hr
cm
rain 24hr
cm
rain mn
cm
humidity
%
barometer
mb
20260906202504 40 123 6.4 17.7 0.00 0.00 0.00 32 1012.3
20260906202025 40 222 4.8 11.3 0.00 0.00 0.00 32 1012.2
20260906201504 40 256 1.6 11.3 0.00 0.00 0.00 32 1012.7
20260906201004 39 323 1.6 17.7 0.00 0.00 0.00 35 1012.5
20260906200504 38 151 6.4 17.7 0.00 0.00 0.00 34 1012.9
20260906200004 38 149 4.8 12.9 0.00 0.00 0.00 35 1012.9
20260906195525 38 100 4.8 12.9 0.00 0.00 0.00 35 1013.5
20260906195004 39 85 1.6 17.7 0.00 0.00 0.00 34 1013.1
20260906194504 40 77 6.4 17.7 0.00 0.00 0.00 32 1013.4
20260906194025 39 83 9.7 17.7 0.00 0.00 0.00 34 1013.5
20260906193504 39 114 3.2 12.9 0.00 0.00 0.00 35 1013.7
20260906193004 39 141 6.4 12.9 0.00 0.00 0.00 33 1013.5
20260906192504 39 257 3.2 11.3 0.00 0.00 0.00 34 1013.9
20260906192004 38 135 4.8 12.9 0.00 0.00 0.00 35 1013.3
20260906191504 38 126 3.2 16.1 0.00 0.00 0.00 34 1013.3
20260906191004 38 192 1.6 16.1 0.00 0.00 0.00 35 1013.2
20260906190504 37 248 3.2 11.3 0.00 0.00 0.00 38 1013.3
20260906190004 37 49 1.6 12.9 0.00 0.00 0.00 36 1013.9
20260906185504 38 85 6.4 14.5 0.00 0.00 0.00 36 1013.7
20260906185004 39 90 6.4 17.7 0.00 0.00 0.00 34 1013.9
20260906184504 39 147 6.4 17.7 0.00 0.00 0.00 35 1013.5
20260906184004 39 123 4.8 14.5 0.00 0.00 0.00 36 1014.3
20260906183504 38 57 4.8 9.7 0.00 0.00 0.00 37 1014.0
20260906183004 38 115 3.2 16.1 0.00 0.00 0.00 37 1014.2
20260906182504 38 86 1.6 17.7 0.00 0.00 0.00 38 1014.4
20260906182004 38 118 4.8 17.7 0.00 0.00 0.00 38 1014.4
20260906181525 38 98 6.4 16.1 0.00 0.00 0.00 38 1014.8
20260906181004 38 113 6.4 16.1 0.00 0.00 0.00 38 1014.4
20260906180504 38 100 3.2 16.1 0.00 0.00 0.00 38 1014.6
20260906180004 38 139 3.2 17.7 0.00 0.00 0.00 39 1014.6
20260906175504 38 148 1.6 17.7 0.00 0.00 0.00 39 1014.8
20260906175025 38 146 9.7 17.7 0.00 0.00 0.00 38 1014.7
20260906174525 37 153 3.2 14.5 0.00 0.00 0.00 39 1014.9
20260906174004 37 200 1.6 11.3 0.00 0.00 0.00 40 1015.1
20260906173504 37 197 3.2 11.3 0.00 0.00 0.00 39 1015.0
20260906173004 37 170 3.2 9.7 0.00 0.00 0.00 41 1015.2
20260906172525 37 161 3.2 9.7 0.00 0.00 0.00 40 1015.5
20260906172025 36 154 1.6 12.9 0.00 0.00 0.00 42 1015.4
20260906171504 36 278 1.6 12.9 0.00 0.00 0.00 43 1015.2
20260906171004 36 231 1.6 6.4 0.00 0.00 0.00 42 1015.5
20260906170504 36 259 1.6 6.4 0.00 0.00 0.00 43 1016.0
20260906170003 36 246 3.2 11.3 0.00 0.00 0.00 43 1015.7
20260906165503 36 218 0.0 11.3 0.00 0.00 0.00 43 1015.8
20260906165004 35 137 6.4 11.3 0.00 0.00 0.00 43 1015.8
20260906164504 35 154 3.2 6.4 0.00 0.00 0.00 46 1016.0
20260906164004 35 271 0.0 9.7 0.00 0.00 0.00 46 1016.0
20260906163504 36 271 1.6 9.7 0.00 0.00 0.00 43 1015.7
20260906163004 36 173 3.2 9.7 0.00 0.00 0.00 41 1015.6
20260906162504 36 175 0.0 4.8 0.00 0.00 0.00 45 1015.6
20260906162004 36 268 1.6 4.8 0.00 0.00 0.00 43 1015.3
20260906161504 36 223 0.0 6.4 0.00 0.00 0.00 47 1015.5
20260906161004 35 239 0.0 6.4 0.00 0.00 0.00 45 1015.7
20260906160504 35 201 1.6 4.8 0.00 0.00 0.00 48 1015.7
20260906160004 35 271 1.6 4.8 0.00 0.00 0.00 45 1015.9
20260906155504 35 165 1.6 4.8 0.00 0.00 0.00 47 1016.0
20260906155004 34 258 1.6 6.4 0.00 0.00 0.00 48 1015.5
20260906154525 33 253 1.6 6.4 0.00 0.00 0.00 48 1015.5
20260906154004 33 189 1.6 4.8 0.00 0.00 0.00 50 1015.4
20260906153504 33 205 1.6 4.8 0.00 0.00 0.00 52 1015.6
20260906153004 33 204 1.6 6.4 0.00 0.00 0.00 52 1015.6
20260906152525 33 258 0.0 9.7 0.00 0.00 0.00 50 1016.1
20260906152004 33 216 1.6 9.7 0.00 0.00 0.00 52 1015.3
20260906151504 33 144 1.6 9.7 0.00 0.00 0.00 53 1015.3
20260906151004 32 161 1.6 3.2 0.00 0.00 0.00 56 1015.7
20260906150504 31 208 0.0 1.6 0.00 0.00 0.00 58 1015.5
20260906150004 31 166 0.0 3.2 0.00 0.00 0.00 59 1015.6
20260906145504 30 135 0.0 4.8 0.00 0.00 0.00 59 1015.8
20260906145004 30 245 1.6 4.8 0.00 0.00 0.00 59 1015.3
20260906144504 30 278 0.0 6.4 0.00 0.00 0.00 61 1015.8
20260906144004 30 235 0.0 6.4 0.00 0.00 0.00 62 1015.7
20260906143503 30 246 3.2 6.4 0.00 0.00 0.00 62 1015.4
20260906143004 29 232 1.6 6.4 0.00 0.00 0.00 63 1015.5
20260906142504 28 215 0.0 4.8 0.00 0.00 0.00 63 1015.4
20260906142004 28 233 3.2 4.8 0.00 0.00 0.00 63 1015.3
20260906141504 28 248 1.6 4.8 0.00 0.00 0.00 66 1015.2
20260906141004 28 242 0.0 4.8 0.00 0.00 0.00 66 1015.2
20260906140504 27 243 1.6 4.8 0.00 0.00 0.00 67 1015.0
20260906140004 27 237 1.6 4.8 0.00 0.00 0.00 69 1015.5
20260906135504 26 240 1.6 4.8 0.00 0.00 0.00 71 1015.2
20260906135003 26 0 0.0 1.6 0.00 0.00 0.00 74 1015.0
20260906134504 26 203 1.6 1.6 0.00 0.00 0.00 76 1015.0
20260906134004 25 165 0.0 1.6 0.00 0.00 0.00 78 1015.5
20260906133504 25 0 0.0 0.0 0.00 0.00 0.00 82 1014.9
20260906133004 24 0 0.0 0.0 0.00 0.00 0.00 83 1014.9
20260906132504 24 0 0.0 0.0 0.00 0.00 0.00 85 1015.1
20260906132004 24 0 0.0 0.0 0.00 0.00 0.00 84 1015.0
20260906131504 23 0 0.0 0.0 0.00 0.00 0.00 85 1015.3
20260906131004 23 0 0.0 0.0 0.00 0.00 0.00 85 1014.8
20260906130504 23 0 0.0 0.0 0.00 0.00 0.00 86 1015.0
20260906130025 23 0 0.0 0.0 0.00 0.00 0.00 86 1015.0
20260906125504 23 0 0.0 0.0 0.00 0.00 0.00 87 1014.9
20260906125004 23 0 0.0 0.0 0.00 0.00 0.00 86 1014.8
20260906124504 22 0 0.0 0.0 0.00 0.00 0.00 86 1014.6
20260906124004 22 0 0.0 0.0 0.00 0.00 0.00 86 1014.8
20260906123504 22 0 0.0 0.0 0.00 0.00 0.00 86 1014.2
20260906123004 22 0 0.0 0.0 0.00 0.00 0.00 86 1014.6
20260906122503 22 0 0.0 0.0 0.00 0.00 0.00 86 1014.6
20260906122004 22 0 0.0 0.0 0.00 0.00 0.00 85 1014.8
20260906121504 22 0 0.0 0.0 0.00 0.00 0.00 85 1014.2
20260906121025 22 0 0.0 0.0 0.00 0.00 0.00 85 1014.4
20260906120504 22 0 0.0 0.0 0.00 0.00 0.00 85 1014.5
20260906120004 22 0 0.0 0.0 0.00 0.00 0.00 85 1014.6
20260906115525 22 0 0.0 0.0 0.00 0.00 0.00 85 1014.4
20260906115004 22 0 0.0 0.0 0.00 0.00 0.00 85 1014.3
20260906114525 22 0 0.0 0.0 0.00 0.00 0.00 85 1014.6
20260906114004 22 0 0.0 0.0 0.00 0.00 0.00 85 1013.9
20260906113503 22 0 0.0 0.0 0.00 0.00 0.00 85 1014.2
20260906113004 22 0 0.0 0.0 0.00 0.00 0.00 85 1014.2
20260906112504 22 0 0.0 0.0 0.00 0.00 0.00 85 1013.7
20260906112004 22 0 0.0 0.0 0.00 0.00 0.00 85 1014.0
20260906111504 22 0 0.0 0.0 0.00 0.00 0.00 85 1014.3
20260906111004 22 0 0.0 0.0 0.00 0.00 0.00 84 1013.7
20260906110504 22 0 0.0 0.0 0.00 0.00 0.00 84 1013.7
20260906110004 23 0 0.0 0.0 0.00 0.00 0.00 84 1013.6
20260906105525 23 0 0.0 0.0 0.00 0.00 0.00 85 1013.5
20260906105004 23 0 0.0 0.0 0.00 0.00 0.00 84 1013.8
20260906104504 23 0 0.0 0.0 0.00 0.00 0.00 84 1013.9
20260906104004 23 0 0.0 0.0 0.00 0.00 0.00 83 1013.8
20260906103504 23 0 0.0 0.0 0.00 0.00 0.00 83 1013.7
20260906103004 23 0 0.0 0.0 0.00 0.00 0.00 83 1013.8
20260906102525 23 0 0.0 0.0 0.00 0.00 0.00 84 1014.0
20260906102004 23 0 0.0 0.0 0.00 0.00 0.00 84 1014.0
20260906101504 23 0 0.0 0.0 0.00 0.00 0.00 82 1013.6
20260906101004 23 0 0.0 0.0 0.00 0.00 0.00 82 1013.7
20260906100504 23 0 0.0 1.6 0.00 0.00 0.00 82 1013.6
20260906100025 23 100 0.0 1.6 0.00 0.00 0.00 83 1013.5
20260906095504 23 0 0.0 1.6 0.00 0.00 0.00 82 1013.5
20260906095004 23 0 0.0 0.0 0.00 0.00 0.00 82 1013.7
20260906094504 23 0 0.0 0.0 0.00 0.00 0.00 82 1013.4
20260906094004 23 0 0.0 0.0 0.00 0.00 0.00 82 1013.3
20260906093504 23 0 0.0 0.0 0.00 0.00 0.00 82 1013.5
20260906093025 23 0 0.0 0.0 0.00 0.00 0.00 82 1012.9
20260906092504 23 0 0.0 0.0 0.00 0.00 0.00 82 1013.4
20260906092004 23 0 0.0 0.0 0.00 0.00 0.00 81 1013.6
20260906091504 23 0 0.0 0.0 0.00 0.00 0.00 81 1013.4
20260906091004 23 0 0.0 0.0 0.00 0.00 0.00 81 1013.9
20260906090504 23 0 0.0 0.0 0.00 0.00 0.00 81 1013.3
20260906090004 23 0 0.0 0.0 0.00 0.00 0.00 81 1013.8
20260906085504 23 0 0.0 0.0 0.00 0.00 0.00 81 1013.4
20260906085004 23 0 0.0 0.0 0.00 0.00 0.00 81 1013.4
20260906084504 23 0 0.0 0.0 0.00 0.00 0.00 81 1013.3
20260906084004 23 0 0.0 0.0 0.00 0.00 0.00 80 1013.5
20260906083504 23 0 0.0 0.0 0.00 0.00 0.00 80 1013.4
20260906083025 23 0 0.0 0.0 0.00 0.00 0.00 80 1013.2
20260906082504 23 0 0.0 0.0 0.00 0.00 0.00 80 1013.2
20260906082004 23 0 0.0 0.0 0.00 0.00 0.00 80 1013.2
20260906081504 23 0 0.0 0.0 0.00 0.00 0.00 79 1013.3
20260906081004 24 0 0.0 0.0 0.00 0.00 0.00 79 1013.3
20260906080504 24 0 0.0 0.0 0.00 0.00 0.00 79 1013.1
20260906080004 24 0 0.0 0.0 0.00 0.00 0.00 78 1013.2
20260906075504 24 0 0.0 0.0 0.00 0.00 0.00 78 1013.0
20260906075004 24 0 0.0 0.0 0.00 0.00 0.00 78 1013.1
20260906074504 24 0 0.0 0.0 0.00 0.00 0.00 77 1013.2
20260906074025 24 0 0.0 0.0 0.00 0.00 0.00 77 1013.3
20260906073504 24 0 0.0 0.0 0.00 0.00 0.00 77 1013.2
20260906073025 24 0 0.0 0.0 0.00 0.00 0.00 77 1013.4
20260906072504 24 0 0.0 0.0 0.00 0.00 0.00 77 1013.4
20260906072004 24 0 0.0 0.0 0.00 0.00 0.00 76 1013.4
20260906071504 25 0 0.0 0.0 0.00 0.00 0.00 76 1013.4
20260906071004 25 0 0.0 0.0 0.00 0.00 0.00 76 1013.2
20260906070504 25 0 0.0 0.0 0.00 0.00 0.00 76 1013.3
20260906070004 25 0 0.0 0.0 0.00 0.00 0.00 76 1013.5
20260906065504 25 0 0.0 0.0 0.00 0.00 0.00 75 1013.4
20260906065004 25 0 0.0 0.0 0.00 0.00 0.00 74 1013.6
20260906064525 25 0 0.0 0.0 0.00 0.00 0.00 74 1013.3
20260906064004 25 0 0.0 0.0 0.00 0.00 0.00 74 1013.0
20260906063525 25 0 0.0 0.0 0.00 0.00 0.00 74 1013.3
20260906063004 25 0 0.0 0.0 0.00 0.00 0.00 73 1013.3
20260906062504 25 0 0.0 0.0 0.00 0.00 0.00 73 1013.4
20260906062004 25 0 0.0 0.0 0.00 0.00 0.00 72 1013.5
20260906061525 25 0 0.0 1.6 0.00 0.00 0.00 72 1013.5
20260906061004 25 0 0.0 1.6 0.00 0.00 0.00 73 1013.4
20260906060504 25 100 0.0 1.6 0.00 0.00 0.00 72 1013.5
20260906060004 25 0 0.0 0.0 0.00 0.00 0.00 72 1013.2
20260906055504 25 0 0.0 0.0 0.00 0.00 0.00 72 1013.4
20260906055004 26 0 0.0 0.0 0.00 0.00 0.00 71 1013.2
20260906054504 26 0 0.0 0.0 0.00 0.00 0.00 71 1013.5
20260906054004 26 0 0.0 0.0 0.00 0.00 0.00 71 1013.1
20260906053504 26 0 0.0 3.2 0.00 0.00 0.00 71 1013.5
20260906053004 26 0 0.0 3.2 0.00 0.00 0.00 71 1013.2
20260906052503 26 113 1.6 3.2 0.00 0.00 0.00 72 1012.7
20260906052004 26 111 1.6 3.2 0.00 0.00 0.00 72 1013.2
20260906051504 26 0 0.0 0.0 0.00 0.00 0.00 71 1013.0
20260906051004 26 0 0.0 0.0 0.00 0.00 0.00 71 1012.9
20260906050525 26 0 0.0 0.0 0.00 0.00 0.00 71 1013.0
20260906050005 26 0 0.0 0.0 0.00 0.00 0.00 69 1013.0
20260906045504 26 0 0.0 0.0 0.00 0.00 0.00 69 1012.8
20260906045004 26 0 0.0 0.0 0.00 0.00 0.00 69 1013.0
20260906044504 26 0 0.0 0.0 0.00 0.00 0.00 69 1013.1
20260906044004 27 0 0.0 0.0 0.00 0.00 0.00 66 1013.0
20260906043504 27 0 0.0 0.0 0.00 0.00 0.00 66 1013.2
20260906043004 27 0 0.0 0.0 0.00 0.00 0.00 67 1013.0
20260906042525 27 0 0.0 0.0 0.00 0.00 0.00 67 1012.7
20260906042004 27 0 0.0 0.0 0.00 0.00 0.00 65 1012.8
20260906041504 27 0 0.0 0.0 0.00 0.00 0.00 64 1012.9
20260906041025 27 0 0.0 0.0 0.00 0.00 0.00 64 1012.9
20260906040504 27 0 0.0 0.0 0.00 0.00 0.00 64 1013.0
20260906040004 27 0 0.0 0.0 0.00 0.00 0.00 64 1012.9
20260906035525 27 0 0.0 0.0 0.00 0.00 0.00 64 1013.1
20260906035004 27 0 0.0 0.0 0.00 0.00 0.00 64 1013.3
20260906034504 27 0 0.0 0.0 0.00 0.00 0.00 65 1013.1
20260906034004 27 0 0.0 0.0 0.00 0.00 0.00 65 1013.2
20260906033504 27 0 0.0 0.0 0.00 0.00 0.00 63 1012.9
20260906033025 28 0 0.0 0.0 0.00 0.00 0.00 63 1012.9
20260906032504 28 0 0.0 0.0 0.00 0.00 0.00 63 1012.8
20260906032025 28 0 0.0 0.0 0.00 0.00 0.00 62 1013.2
20260906031525 28 0 0.0 0.0 0.00 0.00 0.00 62 1013.1
20260906031025 28 0 0.0 0.0 0.00 0.00 0.00 62 1012.9
20260906030504 28 0 0.0 0.0 0.00 0.00 0.00 61 1012.9
20260906030004 28 0 0.0 0.0 0.00 0.00 0.00 61 1012.9
20260906025525 28 0 0.0 0.0 0.00 0.00 0.00 61 1012.7
20260906025004 28 0 0.0 0.0 0.00 0.00 0.00 61 1012.9
20260906024504 28 0 0.0 0.0 0.00 0.00 0.00 60 1013.0
20260906024004 29 0 0.0 0.0 0.00 0.00 0.00 60 1012.6
20260906023504 29 0 0.0 0.0 0.00 0.00 0.00 58 1012.6
20260906023004 29 0 0.0 0.0 0.00 0.00 0.00 57 1012.5
20260906022504 30 0 0.0 0.0 0.00 0.00 0.00 57 1012.6
20260906022004 30 0 0.0 0.0 0.00 0.00 0.00 56 1012.6
20260906021525 30 0 0.0 0.0 0.00 0.00 0.00 56 1012.5
20260906021004 30 0 0.0 0.0 0.00 0.00 0.00 56 1012.5
20260906020504 30 0 0.0 0.0 0.00 0.00 0.00 55 1012.3
20260906020004 30 0 0.0 0.0 0.00 0.00 0.00 55 1012.3
20260906015504 30 0 0.0 0.0 0.00 0.00 0.00 55 1012.3
20260906015004 30 0 0.0 0.0 0.00 0.00 0.00 54 1012.5
20260906014504 31 0 0.0 0.0 0.00 0.00 0.00 53 1012.0
20260906014004 31 0 0.0 0.0 0.00 0.00 0.00 53 1012.1
20260906013504 31 0 0.0 0.0 0.00 0.00 0.00 52 1012.0
20260906013004 31 0 0.0 0.0 0.00 0.00 0.00 51 1012.2
20260906012504 32 0 0.0 0.0 0.00 0.00 0.00 50 1012.4
20260906012004 32 0 0.0 0.0 0.00 0.00 0.00 50 1012.1
20260906011504 32 0 0.0 0.0 0.00 0.00 0.00 48 1012.0
20260906011004 32 0 0.0 0.0 0.00 0.00 0.00 47 1012.0
20260906010504 33 0 0.0 0.0 0.00 0.00 0.00 47 1011.9
20260906010004 33 0 0.0 1.6 0.00 0.00 0.00 45 1011.9
20260906005504 33 0 0.0 1.6 0.00 0.00 0.00 45 1011.8
20260906005025 33 153 0.0 3.2 0.00 0.00 0.00 44 1012.1
20260906004504 34 150 0.0 3.2 0.00 0.00 0.00 44 1012.0
20260906004004 34 159 0.0 1.6 0.00 0.00 0.00 43 1011.8
20260906003504 35 0 0.0 0.0 0.00 0.00 0.00 42 1011.7
20260906003004 35 0 0.0 4.8 0.00 0.00 0.00 42 1012.2
20260906002504 35 129 0.0 4.8 0.00 0.00 0.00 41 1011.7
20260906002004 35 148 1.6 4.8 0.00 0.00 0.00 40 1011.9
20260906001525 35 139 1.6 4.8 0.00 0.00 0.00 40 1011.8
20260906001025 35 142 3.2 4.8 0.00 0.00 0.00 40 1012.0
20260906000504 36 116 1.6 6.4 0.00 0.00 0.00 40 1011.5
20260906000025 36 135 1.6 9.7 0.00 0.00 0.00 39 1011.5
20260905235504 36 122 1.6 11.3 0.00 0.00 0.00 38 1011.3
20260905235004 36 130 4.8 11.3 0.00 0.00 0.00 38 1011.9
20260905234504 36 133 4.8 11.3 0.00 0.00 0.00 38 1011.8
20260905234004 36 134 3.2 12.9 0.00 0.00 0.00 39 1011.6
20260905233504 36 121 3.2 12.9 0.00 0.00 0.00 38 1011.7
20260905233004 36 124 1.6 11.3 0.00 0.00 0.00 38 1011.6
20260905232504 36 124 4.8 9.7 0.00 0.00 0.00 38 1011.5
20260905232025 36 131 3.2 6.4 0.00 0.00 0.00 37 1011.5
20260905231504 36 157 0.0 12.9 0.00 0.00 0.00 38 1011.1
20260905231004 36 113 1.6 12.9 0.00 0.00 0.00 38 1011.0
20260905230525 36 139 4.8 12.9 0.00 0.00 0.00 37 1011.5
20260905230004 36 147 1.6 11.3 0.00 0.00 0.00 38 1011.3
20260905225504 36 116 1.6 11.3 0.00 0.00 0.00 38 1011.3
20260905225025 36 122 3.2 12.9 0.00 0.00 0.00 38 1011.5
20260905224504 36 125 3.2 12.9 0.00 0.00 0.00 37 1011.3
20260905224004 37 150 4.8 12.9 0.00 0.00 0.00 37 1011.5
20260905223504 37 166 6.4 12.9 0.00 0.00 0.00 36 1011.1
20260905223025 37 117 3.2 12.9 0.00 0.00 0.00 36 1011.5
20260905222504 37 218 3.2 12.9 0.00 0.00 0.00 37 1011.2
20260905222004 37 116 4.8 12.9 0.00 0.00 0.00 36 1011.1
20260905221504 37 131 6.4 12.9 0.00 0.00 0.00 35 1011.1
20260905221004 37 149 4.8 17.7 0.00 0.00 0.00 35 1011.4
20260905220504 38 131 6.4 17.7 0.00 0.00 0.00 34 1011.3
20260905220004 38 182 3.2 14.5 0.00 0.00 0.00 35 1011.4
20260905215504 38 167 3.2 14.5 0.00 0.00 0.00 34 1011.6
20260905215004 38 137 6.4 14.5 0.00 0.00 0.00 34 1010.9
20260905214504 38 170 1.6 14.5 0.00 0.00 0.00 34 1011.5
20260905214004 38 257 3.2 20.9 0.00 0.00 0.00 34 1011.4
20260905213504 38 133 8.0 20.9 0.00 0.00 0.00 35 1011.9
20260905213004 38 114 4.8 11.3 0.00 0.00 0.00 33 1011.8
20260905212504 38 246 3.2 11.3 0.00 0.00 0.00 35 1011.9
20260905212004 38 103 4.8 11.3 0.00 0.00 0.00 33 1012.0
20260905211504 38 233 1.6 11.3 0.00 0.00 0.00 33 1012.2
20260905211004 38 193 3.2 11.3 0.00 0.00 0.00 34 1012.3
20260905210525 38 230 3.2 16.1 0.00 0.00 0.00 33 1012.0
20260905210004 38 132 4.8 16.1 0.00 0.00 0.00 33 1012.3
20260905205504 38 193 3.2 14.5 0.00 0.00 0.00 35 1012.6
20260905205004 39 115 4.8 20.9 0.00 0.00 0.00 33 1011.9
20260905204525 39 129 4.8 20.9 0.00 0.00 0.00 33 1012.1
20260905204004 39 149 4.8 17.7 0.00 0.00 0.00 33 1012.3
20260905203504 39 148 4.8 14.5 0.00 0.00 0.00 33 1012.6
20260905203004 38 213 3.2 12.9 0.00 0.00 0.00 34 1012.9